When you browse on this site, cookies collect data to enhance your experience and personalize the content and advertising you see.
Visit our Privacy Policy to learn more. By continuing to use the site, you agree to this use of cookies and data.
  • En Estados Unidos
  • Lista de países
  • Para 7 días
  • Temperatura del agua
  • Mapa Satelital
  • El tiempo en el mapa
  • Informadores
  • user-avatar
    Iniciar sesión

    Tiempo cada hora Malanje

    Hoy, 17 Diciembre, Lunes

    Tiempo Temperatura Precipitaciones Viento Presión Humedad
    00:00 +19°C° 0 mm 1 mps 666 mmHg 92%
    01:00 +19°C° 0 mm 1 mps 666 mmHg 92%
    02:00 +19°C° 0 mm 1 mps 666 mmHg 92%
    03:00 +19°C° 0 mm 1 mps 666 mmHg 92%
    04:00 +19°C° 0 mm 1 mps 666 mmHg 92%
    05:00 +19°C° 0 mm 2 mps 666 mmHg 92%
    06:00 +19°C° 0 mm 2 mps 667 mmHg 92%
    07:00 +19°C° 0 mm 2 mps 667 mmHg 92%
    08:00 +21°C° 0.2 mm 2 mps 667 mmHg 87%
    09:00 +23°C° 0.2 mm 2 mps 668 mmHg 82%
    10:00 +25°C° 0.2 mm 3 mps 668 mmHg 78%
    11:00 +25°C° 0.7 mm 3 mps 667 mmHg 78%
    12:00 +26°C° 0.7 mm 3 mps 667 mmHg 78%
    13:00 +26°C° 0.7 mm 3 mps 666 mmHg 78%
    14:00 +26°C° 0.8 mm 3 mps 666 mmHg 80%
    15:00 +26°C° 0.8 mm 2 mps 665 mmHg 82%
    16:00 +26°C° 0.8 mm 2 mps 665 mmHg 84%
    17:00 +24°C° 0.5 mm 2 mps 665 mmHg 87%
    18:00 +23°C° 0.5 mm 1 mps 665 mmHg 90%
    19:00 +21°C° 0.5 mm 1 mps 665 mmHg 93%
    20:00 +21°C° 0.4 mm 1 mps 666 mmHg 94%
    21:00 +21°C° 0.4 mm 1 mps 666 mmHg 94%
    22:00 +20°C° 0.4 mm 1 mps 666 mmHg 95%
    23:00 +20°C° 0.1 mm 1 mps 666 mmHg 95%

    Mañana, 18 Diciembre, Martes

    Tiempo Temperatura Precipitaciones Viento Presión Humedad
    00:00 +20°C° 0.1 mm 1 mps 666 mmHg 95%
    01:00 +20°C° 0.1 mm 1 mps 666 mmHg 95%
    02:00 +20°C° 0.2 mm 1 mps 666 mmHg 95%
    03:00 +20°C° 0.2 mm 1 mps 666 mmHg 96%
    04:00 +19°C° 0.2 mm 1 mps 665 mmHg 96%
    05:00 +20°C° 0.3 mm 1 mps 666 mmHg 96%
    06:00 +20°C° 0.3 mm 1 mps 666 mmHg 95%
    07:00 +20°C° 0.3 mm 1 mps 667 mmHg 95%
    08:00 +21°C° 0.4 mm 1 mps 667 mmHg 93%
    09:00 +22°C° 0.4 mm 1 mps 667 mmHg 91%
    10:00 +21°C° 0.4 mm 2 mps 667 mmHg 89%
    11:00 +23°C° 0.1 mm 2 mps 667 mmHg 85%
    12:00 +24°C° 0.1 mm 2 mps 667 mmHg 81%
    13:00 +25°C° 0.1 mm 2 mps 666 mmHg 77%
    14:00 +25°C° 0.1 mm 2 mps 666 mmHg 78%
    15:00 +25°C° 0.1 mm 2 mps 665 mmHg 78%
    16:00 +25°C° 0.1 mm 2 mps 665 mmHg 78%
    17:00 +24°C° 0.1 mm 2 mps 665 mmHg 83%
    18:00 +23°C° 0.1 mm 2 mps 665 mmHg 89%
    19:00 +20°C° 0.1 mm 2 mps 665 mmHg 94%
    20:00 +20°C° 0 mm 2 mps 666 mmHg 95%
    21:00 +19°C° 0 mm 2 mps 666 mmHg 96%
    22:00 +19°C° 0 mm 2 mps 667 mmHg 97%
    23:00 +19°C° 0 mm 2 mps 666 mmHg 97%

    Pasado mañana, 19 Diciembre, Miércoles

    Tiempo Temperatura Precipitaciones Viento Presión Humedad
    00:00 +19°C° 0 mm 2 mps 666 mmHg 98%
    01:00 +19°C° 0 mm 2 mps 665 mmHg 98%
    02:00 +19°C° 0 mm 2 mps 665 mmHg 98%
    03:00 +19°C° 0 mm 2 mps 665 mmHg 97%
    04:00 +18°C° 0 mm 2 mps 665 mmHg 97%
    05:00 +19°C° 0 mm 2 mps 665 mmHg 96%
    06:00 +19°C° 0 mm 2 mps 666 mmHg 95%
    07:00 +19°C° 0 mm 2 mps 666 mmHg 94%
    08:00 +20°C° 0 mm 2 mps 667 mmHg 88%
    09:00 +23°C° 0 mm 2 mps 667 mmHg 82%
    10:00 +24°C° 0 mm 2 mps 668 mmHg 76%
    11:00 +25°C° 1 mm 2 mps 667 mmHg 78%
    12:00 +25°C° 1 mm 2 mps 667 mmHg 80%
    13:00 +26°C° 1 mm 2 mps 666 mmHg 82%
    14:00 +25°C° 1.4 mm 2 mps 665 mmHg 85%
    15:00 +24°C° 1.4 mm 2 mps 665 mmHg 88%
    16:00 +24°C° 1.4 mm 2 mps 664 mmHg 91%
    17:00 +23°C° 0.8 mm 2 mps 664 mmHg 93%
    18:00 +21°C° 0.8 mm 2 mps 665 mmHg 94%
    19:00 +20°C° 0.8 mm 2 mps 665 mmHg 96%
    20:00 +20°C° 0.6 mm 2 mps 665 mmHg 97%
    21:00 +19°C° 0.6 mm 2 mps 666 mmHg 97%
    22:00 +19°C° 0.6 mm 2 mps 666 mmHg 97%
    23:00 +19°C° 0.2 mm 2 mps 666 mmHg 97%

    20 Diciembre, Jueves

    Tiempo Temperatura Precipitaciones Viento Presión Humedad
    00:00 +19°C° 0.2 mm 2 mps 665 mmHg 98%
    01:00 +19°C° 0.2 mm 2 mps 665 mmHg 98%
    02:00 +19°C° 0.2 mm 2 mps 665 mmHg 98%
    03:00 +19°C° 0.2 mm 2 mps 665 mmHg 98%
    04:00 +18°C° 0.2 mm 2 mps 665 mmHg 98%
    05:00 +18°C° 0.2 mm 2 mps 665 mmHg 98%
    06:00 +19°C° 0.2 mm 2 mps 666 mmHg 97%
    07:00 +19°C° 0.2 mm 2 mps 666 mmHg 97%
    08:00 +19°C° 0.3 mm 2 mps 666 mmHg 94%
    09:00 +20°C° 0.3 mm 2 mps 667 mmHg 91%
    10:00 +21°C° 0.3 mm 2 mps 667 mmHg 88%
    11:00 +23°C° 0.1 mm 2 mps 666 mmHg 82%
    12:00 +25°C° 0.1 mm 2 mps 666 mmHg 75%
    13:00 +26°C° 0.1 mm 3 mps 665 mmHg 69%
    14:00 +26°C° 0.5 mm 3 mps 665 mmHg 72%
    15:00 +26°C° 0.5 mm 3 mps 665 mmHg 75%
    16:00 +25°C° 0.5 mm 3 mps 664 mmHg 79%
    17:00 +24°C° 0.4 mm 3 mps 664 mmHg 83%
    18:00 +21°C° 0.4 mm 2 mps 665 mmHg 88%
    19:00 +20°C° 0.4 mm 2 mps 665 mmHg 93%
    20:00 +20°C° 0 mm 2 mps 665 mmHg 93%
    21:00 +19°C° 0 mm 3 mps 666 mmHg 94%
    22:00 +19°C° 0 mm 3 mps 666 mmHg 94%
    23:00 +19°C° 0 mm 3 mps 666 mmHg 95%

    21 Diciembre, Viernes

    Tiempo Temperatura Precipitaciones Viento Presión Humedad
    00:00 +19°C° 0 mm 3 mps 665 mmHg 96%
    01:00 +18°C° 0 mm 3 mps 665 mmHg 97%
    02:00 +18°C° 0.2 mm 3 mps 665 mmHg 96%
    03:00 +18°C° 0.2 mm 3 mps 665 mmHg 96%
    04:00 +18°C° 0.2 mm 3 mps 665 mmHg 96%
    05:00 +18°C° 0.1 mm 3 mps 665 mmHg 95%
    06:00 +18°C° 0.1 mm 2 mps 666 mmHg 94%
    07:00 +18°C° 0.1 mm 2 mps 666 mmHg 94%
    08:00 +19°C° 0 mm 2 mps 666 mmHg 87%
    09:00 +21°C° 0 mm 3 mps 666 mmHg 80%
    10:00 +22°C° 0 mm 3 mps 667 mmHg 73%
    11:00 +24°C° 0 mm 3 mps 666 mmHg 69%
    12:00 +25°C° 0 mm 3 mps 665 mmHg 66%
    13:00 +27°C° 0 mm 3 mps 665 mmHg 63%
    14:00 +26°C° 0.3 mm 3 mps 664 mmHg 67%
    15:00 +26°C° 0.3 mm 3 mps 664 mmHg 72%
    16:00 +25°C° 0.3 mm 2 mps 663 mmHg 77%
    17:00 +24°C° 0 mm 2 mps 663 mmHg 79%
    18:00 +21°C° 0 mm 2 mps 664 mmHg 82%
    19:00 +20°C° 0 mm 2 mps 664 mmHg 84%
    20:00 +20°C° 0 mm 2 mps 664 mmHg 84%
    21:00 +19°C° 0 mm 2 mps 664 mmHg 85%
    22:00 +19°C° 0 mm 2 mps 664 mmHg 85%
    23:00 +18°C° 0 mm 2 mps 664 mmHg 86%

    22 Diciembre, Sábado

    Tiempo Temperatura Precipitaciones Viento Presión Humedad
    00:00 +18°C° 0 mm 2 mps 664 mmHg 86%
    01:00 +18°C° 0 mm 2 mps 664 mmHg 87%
    02:00 +18°C° 0 mm 2 mps 664 mmHg 88%
    03:00 +18°C° 0 mm 2 mps 664 mmHg 90%
    04:00 +18°C° 0 mm 2 mps 664 mmHg 91%
    05:00 +18°C° 0 mm 2 mps 664 mmHg 91%
    06:00 +18°C° 0 mm 2 mps 665 mmHg 91%
    07:00 +18°C° 0 mm 2 mps 665 mmHg 92%
    08:00 +18°C° 0.1 mm 2 mps 665 mmHg 90%
    09:00 +19°C° 0.1 mm 2 mps 665 mmHg 88%
    10:00 +21°C° 0.1 mm 1 mps 665 mmHg 86%
    11:00 +20°C° 0.1 mm 2 mps 665 mmHg 84%
    12:00 +21°C° 0.1 mm 2 mps 664 mmHg 82%
    13:00 +21°C° 0.1 mm 2 mps 664 mmHg 80%
    14:00 +23°C° 0 mm 2 mps 663 mmHg 77%
    15:00 +24°C° 0 mm 2 mps 663 mmHg 74%
    16:00 +25°C° 0 mm 3 mps 663 mmHg 71%
    17:00 +23°C° 0 mm 2 mps 663 mmHg 77%
    18:00 +21°C° 0 mm 2 mps 663 mmHg 83%
    19:00 +21°C° 0 mm 1 mps 663 mmHg 89%
    20:00 +20°C° 0 mm 1 mps 664 mmHg 89%
    21:00 +20°C° 0 mm 1 mps 664 mmHg 90%
    22:00 +19°C° 0 mm 1 mps 664 mmHg 90%
    23:00 +18°C° 0 mm 2 mps 664 mmHg 90%
    Mostrar más